Burlington, NC

2:45 PM EDT on September 21, 2017 (GMT -0400)
Burlington-Alamance Regional

Weather History for KBUY - February, 2013

Change the Weather History Date:

Wednesday, February 6, 2013

  Actual Average Record
Temperature  
Mean Temperature 44 °F -  
Max Temperature 60 °F 49 °F 74 °F (1991)
Min Temperature 28 °F 27 °F 14 °F (2007)
Degree Days  
Heating Degree Days 21    
Moisture  
Dew Point 27 °F    
Average Humidity 57    
Maximum Humidity 92    
Minimum Humidity 23    
Precipitation  
Precipitation 0.00 in - - ()
Sea Level Pressure  
Sea Level Pressure 30.13 in    
Wind  
Wind Speed 3 mph (NW)    
Max Wind Speed 12 mph    
Max Gust Speed 16 mph    
Visibility 10 miles    
Events      
Averages and records for this station are not official NWS values.
T = Trace of Precipitation, MM = Missing Value Source: NWS Daily Summary

Daily Weather History Graph

Daily Weather History Graph

Search for Another Location

Airport or City:

Trip Planner

Search our weather history database for the weather conditions in past years. The results will help you decide how hot, cold, wet, or windy it might be!

Date:

Astronomy

Feb. 06, 2013 Rise Set
Actual Time 7:14 AM EST 5:50 PM EST
Civil Twilight 6:47 AM EST 6:16 PM EST
Nautical Twilight 6:17 AM EST 6:47 PM EST
Astronomical Twilight 5:47 AM EST 7:17 PM EST
Moon 3:52 AM EST (2/6) 2:10 PM EST (2/6)
Length of Visible Light 11h 29m
Length of Day
10h 36m
Waning Crescent, 17% of the Moon is Illuminated
Feb 6
Waning Crescent
Feb 10
New
Feb 17
First Quarter
Feb 25
Full
Mar 4
Last Quarter

Hourly Weather History & Observations

Time (EST) Temp. Windchill Dew Point Humidity Pressure Visibility Wind Dir Wind Speed Gust Speed Precip Events Conditions
12:54 AM 36.0 °F - 32.0 °F 86% 29.98 in 10.0 mi Calm Calm - N/A   Clear
1:54 AM 34.0 °F 31.0 °F 30.0 °F 85% 29.98 in 10.0 mi SW 3.5 mph - N/A   Clear
2:54 AM 30.0 °F - 28.0 °F 92% 29.99 in 10.0 mi Calm Calm - N/A   Clear
3:54 AM 32.0 °F 27.5 °F 28.9 °F 88% 29.99 in 10.0 mi WSW 4.6 mph - N/A   Clear
4:54 AM 30.0 °F - 28.0 °F 92% 30.01 in 10.0 mi Calm Calm - N/A   Clear
5:54 AM 28.9 °F 25.2 °F 25.0 °F 85% 30.05 in 10.0 mi West 3.5 mph - N/A   Clear
6:54 AM 28.9 °F - 27.0 °F 92% 30.09 in 10.0 mi Calm Calm - N/A   Clear
7:54 AM 30.9 °F - 28.0 °F 89% 30.12 in 9.0 mi Calm Calm - N/A   Clear
8:54 AM 41.0 °F 39.0 °F 36.0 °F 82% 30.14 in 10.0 mi NW 3.5 mph - N/A   Clear
9:54 AM 52.0 °F - 33.1 °F 49% 30.15 in 10.0 mi NNW 9.2 mph 16.1 mph N/A   Clear
10:54 AM 54.0 °F - 28.0 °F 37% 30.16 in 10.0 mi WNW 6.9 mph - N/A   Clear
11:54 AM 57.9 °F - 27.0 °F 31% 30.16 in 10.0 mi NW 11.5 mph - N/A   Clear
12:54 PM 60.1 °F - 23.0 °F 24% 30.15 in 10.0 mi NW 9.2 mph - N/A   Clear
1:54 PM 59.0 °F - 23.0 °F 25% 30.13 in 10.0 mi NNW 8.1 mph - N/A   Clear
2:54 PM 60.1 °F - 21.9 °F 23% 30.13 in 10.0 mi NW 4.6 mph 16.1 mph N/A   Clear
3:54 PM 60.1 °F - 23.0 °F 24% 30.14 in 10.0 mi NNW 9.2 mph - N/A   Clear
4:54 PM 59.0 °F - 23.0 °F 25% 30.16 in 10.0 mi NNW 4.6 mph - N/A   Clear
5:54 PM 53.1 °F - 23.0 °F 31% 30.18 in 10.0 mi North 3.5 mph - N/A   Clear
6:54 PM 50.0 °F - 26.1 °F 39% 30.20 in 10.0 mi Calm Calm - N/A   Clear
7:54 PM 44.1 °F - 27.0 °F 51% 30.22 in 10.0 mi Calm Calm - N/A   Clear
8:54 PM 44.1 °F 40.8 °F 25.0 °F 47% 30.23 in 10.0 mi NNE 5.8 mph - N/A   Clear
9:54 PM 42.1 °F 38.4 °F 25.0 °F 51% 30.22 in 10.0 mi ENE 5.8 mph - N/A   Clear
10:54 PM 41.0 °F - 25.0 °F 53% 30.24 in 10.0 mi Calm Calm - N/A   Clear
11:54 PM 35.1 °F - 27.0 °F 72% 30.27 in 10.0 mi Calm Calm - N/A   Clear